Location: Helsinki
(60.1699°N, 24.9384°E)
Time: 12:11:24
(UTC+02:00)

Transit 2A Rocket - Pass Details

Date: 28 September 2023
Orbit: 593 x 903 km, 66.7° (Epoch: 06 December)

Event Time Altitude Azimuth Distance (km) Brightness Sun altitude
Rises 18:27:24 0° 267° (W) 3,193 10.8 3.6°
Reaches altitude 10° 18:29:59 10° 274° (W) 2,217 9.3 3.3°
Maximum altitude 18:34:45 42° 346° (NNW) 970 5.7 2.7°
Drops below altitude 10° 18:39:10 10° 58° (ENE) 2,047 6.7 2.1°
Sets 18:41:28 0° 65° (ENE) 2,921 7.4 1.8°
